Location: Carrer del Canonge
(41.4901°N, 2.2931°E)
Time: 14:20:33
(UTC+00:00)

NOSS 2-2 (D) - Pass Details

Date: 18 September 2020
Orbit: 469 x 1739 km, 63.3° (Epoch: 23 October)

Event Time Altitude Azimuth Distance (km) Brightness Sun altitude
Rises 19:18:23 0° 222° (SW) 2,527 7.1 -16.3°
Reaches altitude 10° 19:20:30 10° 226° (SW) 1,625 6.1 -16.7°
Maximum altitude 19:23:57 60° 307° (NW) 553 3.6 -17.3°
Drops below altitude 10° 19:27:40 10° 29° (NNE) 1,755 5.8 -18.0°
Sets 19:30:02 0° 33° (NNE) 2,758 6.8 -18.4°
